Galveston, TX

11:11 AM CDT on July 22, 2017 (GMT -0500)
Scholes International At Galveston

Weather History for KGLS - December, 2013

Change the Weather History Date:

Sunday, December 8, 2013

  Actual Average Record
Temperature  
Mean Temperature 44 °F 58 °F  
Max Temperature 48 °F 65 °F 78 °F (2012)
Min Temperature 40 °F 52 °F 29 °F (1927)
Degree Days  
Heating Degree Days 21 8  
Month to date heating degree days 74 55  
Since 1 July heating degree days 252 158  
Cooling Degree Days 0 1  
Month to date cooling degree days 11 8  
Year to date cooling degree days 3322 3297  
Moisture  
Dew Point 41 °F    
Average Humidity 85    
Maximum Humidity 93    
Minimum Humidity 76    
Precipitation  
Precipitation T in 0.13 in 1.42 in (1886)
Month to date precipitation 0.05 1.09  
Year to date precipitation 38.64 48.33  
Snow  
Snow 0.00 in - 0.00 in (2002)
Month to date snowfall 0.0  
Since 1 July snowfall 0.0  
Snow Depth 0.00 in    
Sea Level Pressure  
Sea Level Pressure 30.14 in    
Wind  
Wind Speed 10 mph (NNE)    
Max Wind Speed 15 mph    
Max Gust Speed 18 mph    
Visibility 10 miles    
Events Rain    
T = Trace of Precipitation, MM = Missing Value Source: NWS Daily Summary

Daily Weather History Graph

Daily Weather History Graph

Search for Another Location

Airport or City:

Trip Planner

Search our weather history database for the weather conditions in past years. The results will help you decide how hot, cold, wet, or windy it might be!

Date:

Astronomy

Dec. 08, 2013 Rise Set
Actual Time 7:01 AM CST 5:21 PM CST
Civil Twilight 6:35 AM CST 5:47 PM CST
Nautical Twilight 6:06 AM CST 6:16 PM CST
Astronomical Twilight 5:37 AM CST 6:45 PM CST
Moon 11:43 AM CST (12/8) 11:47 PM CST (12/8)
Length of Visible Light 11h 11m
Length of Day
10h 19m
Waxing Crescent, 40% of the Moon is Illuminated
Dec 8
Waxing Crescent
Dec 9
First Quarter
Dec 17
Full
Dec 25
Last Quarter
Jan 1
New

Hourly Weather History & Observations

Time (CST) Temp. Windchill Dew Point Humidity Pressure Visibility Wind Dir Wind Speed Gust Speed Precip Events Conditions
12:52 AM 41.0 °F 34.3 °F 37.9 °F 89% 30.23 in 10.0 mi North 11.5 mph - N/A   Overcast
1:52 AM 39.9 °F 32.9 °F 37.9 °F 93% 30.20 in 10.0 mi NE 11.5 mph - N/A   Overcast
2:52 AM 39.9 °F 32.9 °F 37.9 °F 93% 30.20 in 10.0 mi NNE 11.5 mph - N/A   Overcast
3:52 AM 41.0 °F 33.9 °F 37.9 °F 89% 30.20 in 10.0 mi North 12.7 mph - N/A   Overcast
4:52 AM 39.9 °F 33.4 °F 37.0 °F 89% 30.20 in 10.0 mi NE 10.4 mph - 0.00 in Rain Light Rain
5:21 AM 39.2 °F 32.0 °F 37.4 °F 93% 30.16 in 9.0 mi NE 11.5 mph - 0.00 in   Overcast
5:52 AM 39.9 °F 35.1 °F 37.9 °F 93% 30.18 in 10.0 mi NNE 6.9 mph - 0.00 in   Overcast
5:59 AM 39.2 °F 33.0 °F 37.4 °F 93% 30.17 in 10.0 mi NNE 9.2 mph - N/A   Overcast
6:14 AM 41.0 °F 35.8 °F 39.2 °F 93% 30.18 in 10.0 mi NNE 8.1 mph - N/A   Overcast
6:52 AM 41.0 °F 35.2 °F 39.0 °F 93% 30.17 in 10.0 mi North 9.2 mph - N/A   Overcast
7:52 AM 42.1 °F 37.1 °F 39.9 °F 92% 30.17 in 10.0 mi NNE 8.1 mph - N/A   Overcast
8:42 AM 42.8 °F 38.0 °F 39.2 °F 87% 30.17 in 10.0 mi NNE 8.1 mph - N/A   Overcast
8:52 AM 43.0 °F 38.2 °F 39.0 °F 86% 30.17 in 10.0 mi North 8.1 mph - N/A   Overcast
9:04 AM 42.8 °F 38.0 °F 39.2 °F 87% 30.17 in 10.0 mi NNE 8.1 mph - N/A   Overcast
9:52 AM 44.1 °F 39.0 °F 39.0 °F 82% 30.18 in 10.0 mi North 9.2 mph - N/A   Overcast
10:52 AM 45.0 °F 40.1 °F 39.0 °F 80% 30.18 in 10.0 mi North 9.2 mph - N/A   Overcast
11:52 AM 45.0 °F 39.3 °F 39.9 °F 82% 30.15 in 10.0 mi North 11.5 mph - N/A   Overcast
12:52 PM 45.0 °F 39.3 °F 39.0 °F 80% 30.12 in 10.0 mi North 11.5 mph - N/A   Overcast
1:52 PM 46.0 °F 40.2 °F 39.9 °F 79% 30.07 in 10.0 mi North 12.7 mph - N/A   Overcast
2:52 PM 46.9 °F - 39.9 °F 77% 30.06 in 8.0 mi North 11.5 mph - N/A   Overcast
3:52 PM 46.0 °F 41.0 °F 39.9 °F 79% 30.06 in 10.0 mi North 10.4 mph - N/A   Overcast
4:52 PM 46.0 °F 40.6 °F 39.9 °F 79% 30.08 in 10.0 mi North 11.5 mph - N/A   Overcast
5:52 PM 46.9 °F - 41.0 °F 80% 30.07 in 10.0 mi NNE 11.5 mph - N/A   Overcast
6:52 PM 48.0 °F - 42.1 °F 80% 30.10 in 10.0 mi North 10.4 mph - N/A   Overcast
7:01 PM 46.4 °F 41.5 °F 42.8 °F 87% 30.10 in 10.0 mi North 10.4 mph - N/A   Overcast
7:32 PM 46.4 °F 42.4 °F 42.8 °F 87% 30.12 in 10.0 mi North 8.1 mph - N/A   Overcast
7:52 PM 46.9 °F - 42.1 °F 83% 30.12 in 10.0 mi NNE 8.1 mph - N/A   Overcast
8:19 PM 46.4 °F 41.5 °F 42.8 °F 87% 30.11 in 10.0 mi North 10.4 mph - N/A   Overcast
8:52 PM 46.9 °F - 43.0 °F 86% 30.12 in 10.0 mi North 9.2 mph - N/A   Overcast
9:09 PM 48.2 °F - 42.8 °F 82% 30.11 in 10.0 mi NNE 9.2 mph - N/A   Overcast
9:52 PM 48.0 °F - 44.1 °F 86% 30.12 in 10.0 mi North 8.1 mph - N/A   Overcast
10:03 PM 48.2 °F - 44.6 °F 87% 30.12 in 10.0 mi NNE 8.1 mph - N/A   Overcast
10:10 PM 48.2 °F - 44.6 °F 87% 30.11 in 10.0 mi NNE 8.1 mph - N/A   Overcast
10:49 PM 48.2 °F - 44.6 °F 87% 30.13 in 10.0 mi North 10.4 mph - N/A   Overcast
10:52 PM 48.0 °F - 44.1 °F 86% 30.13 in 10.0 mi North 9.2 mph - N/A   Overcast
11:00 PM 48.2 °F - 44.6 °F 87% 30.13 in 10.0 mi North 9.2 mph - N/A   Overcast
11:52 PM 48.0 °F - 45.0 °F 89% 30.14 in 10.0 mi North 9.2 mph - N/A   Overcast